W5DNT Weather Reports


time (UTC)temp
C
wind
direction
speed
KPH
gust
KPH
rain 1hr
cm
rain 24hr
cm
rain mn
cm
humidity
%
barometer
mb
20260510044512 23 159 0.0 0.0 0.00 0.00 0.00 74 1009.2
20260510043011 23 159 0.0 0.0 0.00 0.00 0.00 72 1009.2
20260510041510 23 159 0.0 0.0 0.00 0.00 0.00 72 1009.3
20260510040013 23 159 0.0 0.0 0.00 0.00 0.00 71 1009.2
20260510034510 23 159 0.0 0.0 0.00 0.00 0.00 70 1009.2
20260510033011 23 159 0.0 0.0 0.00 0.00 0.00 64 1009.1
20260510031516 24 159 0.0 0.0 0.00 0.00 0.00 63 1009.1
20260510030011 25 159 0.0 0.0 0.00 0.00 0.00 63 1008.9
20260510024508 25 159 0.0 0.0 0.00 0.00 0.00 61 1008.7
20260510023007 25 159 0.0 0.0 0.00 0.00 0.00 60 1008.5
20260510021509 26 159 0.0 0.0 0.00 0.00 0.00 60 1008.3
20260510020007 26 159 0.0 0.0 0.00 0.00 0.00 59 1008.0
20260510014507 27 159 0.0 0.0 0.00 0.00 0.00 58 1008.0
20260510013005 28 159 0.0 0.0 0.00 0.00 0.00 56 1007.8
20260510011505 28 159 0.0 0.0 0.00 0.00 0.00 55 1007.6
20260510010005 28 159 0.0 0.0 0.00 0.00 0.00 54 1007.5
20260510004503 29 159 0.0 0.0 0.00 0.00 0.00 54 1007.6
20260510003004 30 159 0.0 0.0 0.00 0.00 0.00 53 1007.4
20260510001503 30 159 0.0 0.0 0.00 0.00 0.00 51 1007.3
20260510000006 31 159 0.0 0.0 0.00 0.00 0.00 52 1007.3
20260509234502 31 159 0.0 0.0 0.00 0.00 0.00 52 1007.3
20260509233001 31 161 0.0 0.0 0.00 0.00 0.00 50 1007.3
20260509231501 31 159 0.0 0.0 0.00 0.00 0.00 53 1007.3
20260509230100 31 173 0.0 0.0 0.00 0.00 0.00 52 1007.4
20260509224602 31 173 0.0 0.0 0.00 0.00 0.00 54 1007.4
20260509223105 31 138 0.0 0.0 0.00 0.00 0.00 54 1007.4
20260509221605 31 107 0.0 0.0 0.00 0.00 0.00 57 1007.4
20260509220055 31 105 0.0 1.6 0.00 0.00 0.00 54 1007.5
20260509214604 31 101 0.0 3.2 0.00 0.00 0.00 56 1007.6
20260509213051 30 288 0.0 0.0 0.00 0.00 0.00 60 1007.7
20260509211553 30 136 0.0 0.0 0.00 0.00 0.00 55 1007.9
20260509211519 30 136 0.0 0.0 0.00 0.00 0.00 55 1008.0
20260509210053 30 130 0.0 0.0 0.00 0.00 0.00 59 1008.2
20260509204550 30 98 0.0 1.6 0.00 0.00 0.00 58 1008.5
20260509203045 30 124 0.0 3.2 0.00 0.00 0.00 61 1008.6
20260509201550 30 79 0.0 1.6 0.00 0.00 0.00 61 1008.8
20260509200051 29 221 0.0 0.0 0.00 0.00 0.00 65 1009.1
20260509194539 28 94 0.0 0.0 0.00 0.00 0.00 64 1009.4
20260509193037 28 105 0.0 4.8 0.00 0.00 0.00 60 1009.7
20260509191535 28 55 0.0 0.0 0.00 0.00 0.00 71 1009.8
20260509190033 28 117 0.0 0.0 0.00 0.00 0.00 65 1009.9
20260509184532 27 115 0.0 0.0 0.00 0.00 0.00 69 1010.2
20260509183030 27 82 0.0 1.6 0.00 0.00 0.00 69 1010.3
20260509181527 27 117 0.0 0.0 0.00 0.00 0.00 71 1010.5
20260509180024 27 36 0.0 0.0 0.00 0.00 0.00 78 1010.8
20260509174521 26 286 0.0 0.0 0.00 0.00 0.00 78 1010.9
20260509173019 26 320 0.0 0.0 0.00 0.00 0.00 79 1011.1
20260509171525 26 305 0.0 0.0 0.00 0.00 0.00 80 1011.2
20260509170024 25 355 0.0 0.0 0.00 0.00 0.00 80 1011.3
20260509164511 25 279 0.0 1.6 0.00 0.00 0.00 80 1011.4
20260509163008 24 302 0.0 1.6 0.00 0.00 0.00 81 1011.5
20260509161505 24 298 0.0 1.6 0.00 0.00 0.00 81 1011.6
20260509154559 23 355 0.0 4.8 0.00 0.00 0.00 82 1011.5
20260509153057 22 329 0.0 4.8 0.00 0.00 0.00 82 1011.3
20260509151550 22 342 4.8 14.5 0.00 0.00 0.00 82 1011.2
20260509150050 22 334 4.8 16.1 0.00 0.00 0.00 83 1011.1
20260509144543 21 342 8.0 19.3 0.00 0.00 0.00 83 1011.1
20260509143040 21 325 8.0 24.1 0.00 0.00 0.00 83 1011.1
20260509141541 21 317 3.2 14.5 0.00 0.00 0.00 83 1011.1
20260509140041 21 312 0.0 0.0 0.00 0.00 0.00 84 1011.1
20260509134548 20 320 0.0 1.6 0.00 0.00 0.00 84 1011.0
20260509133034 20 15 0.0 1.6 0.00 0.00 0.00 84 1010.9
20260509131546 19 302 0.0 0.0 0.00 0.00 0.00 85 1010.6
20260509130038 18 279 0.0 0.0 0.00 0.00 0.00 85 1010.4
20260509124532 18 279 0.0 1.6 0.00 0.00 0.00 85 1010.2
20260509123031 18 290 0.0 0.0 0.00 0.00 0.00 84 1009.9
20260509121530 18 265 0.0 6.4 0.00 0.00 0.00 84 1009.5
20260509120029 18 200 0.0 0.0 0.00 0.00 0.00 84 1009.1
20260509114531 18 184 0.0 1.6 0.00 0.00 0.00 84 1008.3
20260509113028 18 136 0.0 16.1 0.00 0.00 0.00 83 1008.3
20260509111528 18 193 0.0 16.1 0.00 0.00 0.00 87 1007.6
20260509110025 18 176 0.0 8.0 0.00 0.00 0.00 88 1007.8
20260509104524 18 127 0.0 3.2 0.00 0.00 0.00 88 1010.0
20260509103023 19 169 0.0 3.2 0.00 0.00 0.00 87 1011.2
20260509101533 19 194 0.0 1.6 0.00 0.00 0.00 87 1011.5
20260509100024 19 313 0.0 1.6 0.00 0.00 0.00 86 1011.7
20260509094522 19 161 0.0 1.6 0.00 0.00 0.00 87 1010.9
20260509093021 20 227 0.0 0.0 0.00 0.00 0.00 87 1011.5
20260509091521 20 138 0.0 3.2 0.00 0.00 0.00 87 1011.7
20260509090017 19 327 3.2 8.0 0.00 0.00 0.00 85 1012.0
20260509084517 19 360 4.8 12.9 0.00 0.00 0.00 85 1011.9
20260509083018 18 331 0.0 8.0 0.00 0.00 0.00 85 1011.8
20260509081510 18 329 0.0 0.0 0.00 0.00 0.00 85 1011.3
20260509080009 18 329 0.0 0.0 0.00 0.00 0.00 85 1011.3
20260509074508 17 329 0.0 0.0 0.00 0.00 0.00 85 1011.7
20260509073009 17 115 0.0 0.0 0.00 0.00 0.00 85 1011.2
20260509071506 17 115 0.0 0.0 0.00 0.00 0.00 85 1011.0
20260509070005 17 115 0.0 0.0 0.00 0.00 0.00 85 1011.4
20260509064503 17 115 0.0 0.0 0.00 0.00 0.00 85 1011.0
20260509063100 18 115 0.0 0.0 0.00 0.00 0.00 86 1010.8
20260509061624 18 115 0.0 0.0 0.00 0.00 0.00 85 1010.5
20260509054557 18 115 0.0 0.0 0.00 0.00 0.00 84 1010.4
20260509053055 18 115 0.0 0.0 0.00 0.00 0.00 85 1010.7
20260509051553 18 115 0.0 0.0 0.00 0.00 0.00 84 1010.6
20260509050052 18 115 0.0 0.0 0.00 0.00 0.00 84 1010.6